Location: Austin
(30.3000°N, 97.7500°W)
Time: 06:40:10
(UTC-06:00)

Fermi - Pass Details

Date: 15 November 2025
Orbit: 492 x 503 km, 25.6° (Epoch: 07 December)

Event Time Altitude Azimuth Distance (km) Brightness Sun altitude
Rises 18:09:01 0° 251° (WSW) 2,564 9.9 -7.9°
Reaches altitude 10° 18:11:20 10° 244° (WSW) 1,685 7.9 -8.4°
Maximum altitude 18:14:57 38° 175° (S) 765 4.7 -9.2°
Drops below altitude 10° 18:18:37 10° 106° (ESE) 1,693 5.8 -9.9°
Enters shadow 18:18:40 10° 105° (ESE) 1,712 5.8 -9.9°
